| time (UTC) | temp F | wind direction | speed MPH | gust MPH | rain 1hr in | rain 24hr in | rain mn in | humidity % | barometer mb |
| 20260505223524 | 76 | 215 | 5.0 | 15.0 | 0.00 | 0.00 | 0.00 | 41 | 1006.0 |
| 20260505223044 | 76 | 158 | 4.0 | 13.0 | 0.00 | 0.00 | 0.00 | 41 | 1005.9 |
| 20260505222528 | 76 | 283 | 3.0 | 11.0 | 0.00 | 0.00 | 0.00 | 42 | 1005.6 |
| 20260505222028 | 77 | 223 | 3.0 | 11.0 | 0.00 | 0.00 | 0.00 | 41 | 1005.5 |
| 20260505221536 | 77 | 287 | 2.0 | 8.0 | 0.00 | 0.00 | 0.00 | 41 | 1005.4 |
| 20260505221028 | 77 | 276 | 3.0 | 15.0 | 0.00 | 0.00 | 0.00 | 41 | 1005.3 |
| 20260505220525 | 77 | 294 | 4.0 | 15.0 | 0.00 | 0.00 | 0.00 | 41 | 1005.0 |
| 20260505220046 | 77 | 56 | 3.0 | 23.0 | 0.00 | 0.00 | 0.00 | 40 | 1005.3 |
| 20260505215526 | 78 | 289 | 3.0 | 23.0 | 0.00 | 0.00 | 0.00 | 40 | 1005.5 |
| 20260505215025 | 78 | 217 | 6.0 | 23.0 | 0.00 | 0.00 | 0.00 | 38 | 1005.7 |
| 20260505214544 | 78 | 193 | 4.0 | 14.0 | 0.00 | 0.00 | 0.00 | 39 | 1005.6 |
| 20260505214026 | 79 | 242 | 4.0 | 14.0 | 0.00 | 0.00 | 0.00 | 38 | 1005.4 |
| 20260505213529 | 79 | 271 | 3.0 | 14.0 | 0.00 | 0.00 | 0.00 | 38 | 1005.2 |
| 20260505213046 | 79 | 138 | 3.0 | 9.0 | 0.00 | 0.00 | 0.00 | 38 | 1005.2 |
| 20260505212533 | 80 | 101 | 2.0 | 12.0 | 0.00 | 0.00 | 0.00 | 37 | 1005.1 |
| 20260505212030 | 80 | 328 | 4.0 | 12.0 | 0.00 | 0.00 | 0.00 | 37 | 1005.0 |
| 20260505211543 | 80 | 181 | 4.0 | 16.0 | 0.00 | 0.00 | 0.00 | 36 | 1005.0 |
| 20260505211029 | 80 | 301 | 3.0 | 16.0 | 0.00 | 0.00 | 0.00 | 37 | 1004.8 |
| 20260505210528 | 80 | 285 | 5.0 | 16.0 | 0.00 | 0.00 | 0.00 | 34 | 1004.8 |
| 20260505210045 | 81 | 148 | 3.0 | 11.0 | 0.00 | 0.00 | 0.00 | 35 | 1004.9 |
| 20260505205529 | 81 | 172 | 3.0 | 10.0 | 0.00 | 0.00 | 0.00 | 35 | 1004.9 |
| 20260505205030 | 81 | 243 | 3.0 | 10.0 | 0.00 | 0.00 | 0.00 | 34 | 1004.9 |
| 20260505204537 | 81 | 155 | 3.0 | 10.0 | 0.00 | 0.00 | 0.00 | 35 | 1004.8 |
| 20260505204029 | 81 | 243 | 4.0 | 10.0 | 0.00 | 0.00 | 0.00 | 34 | 1004.9 |
| 20260505203529 | 82 | 183 | 2.0 | 9.0 | 0.00 | 0.00 | 0.00 | 35 | 1004.7 |
| 20260505203048 | 82 | 296 | 4.0 | 9.0 | 0.00 | 0.00 | 0.00 | 35 | 1004.7 |
| 20260505202526 | 82 | 172 | 3.0 | 9.0 | 0.00 | 0.00 | 0.00 | 36 | 1004.6 |
| 20260505202025 | 82 | 276 | 3.0 | 13.0 | 0.00 | 0.00 | 0.00 | 34 | 1004.8 |
| 20260505201543 | 82 | 316 | 3.0 | 13.0 | 0.00 | 0.00 | 0.00 | 34 | 1004.9 |
| 20260505201028 | 82 | 162 | 3.0 | 16.0 | 0.00 | 0.00 | 0.00 | 35 | 1004.9 |
| 20260505200529 | 83 | 285 | 4.0 | 16.0 | 0.00 | 0.00 | 0.00 | 34 | 1004.9 |
| 20260505200038 | 83 | 321 | 3.0 | 8.0 | 0.00 | 0.00 | 0.00 | 34 | 1004.9 |
| 20260505195533 | 83 | 304 | 2.0 | 13.0 | 0.00 | 0.00 | 0.00 | 37 | 1004.7 |
| 20260505195029 | 83 | 105 | 2.0 | 13.0 | 0.00 | 0.00 | 0.00 | 35 | 1004.8 |
| 20260505194538 | 83 | 92 | 3.0 | 14.0 | 0.00 | 0.00 | 0.00 | 35 | 1004.9 |
| 20260505194029 | 83 | 276 | 4.0 | 14.0 | 0.00 | 0.00 | 0.00 | 35 | 1004.7 |
| 20260505193532 | 83 | 171 | 5.0 | 14.0 | 0.00 | 0.00 | 0.00 | 34 | 1004.8 |
| 20260505193052 | 83 | 285 | 3.0 | 12.0 | 0.00 | 0.00 | 0.00 | 34 | 1004.9 |
| 20260505192528 | 83 | 266 | 4.0 | 12.0 | 0.00 | 0.00 | 0.00 | 33 | 1004.9 |
| 20260505192024 | 83 | 275 | 3.0 | 12.0 | 0.00 | 0.00 | 0.00 | 35 | 1005.1 |
| 20260505191544 | 83 | 246 | 4.0 | 13.0 | 0.00 | 0.00 | 0.00 | 34 | 1005.2 |
| 20260505191024 | 83 | 199 | 5.0 | 16.0 | 0.00 | 0.00 | 0.00 | 34 | 1005.3 |
| 20260505190525 | 83 | 184 | 3.0 | 16.0 | 0.00 | 0.00 | 0.00 | 36 | 1005.2 |
| 20260505190043 | 83 | 274 | 4.0 | 13.0 | 0.00 | 0.00 | 0.00 | 34 | 1005.3 |
| 20260505185526 | 83 | 234 | 4.0 | 22.0 | 0.00 | 0.00 | 0.00 | 33 | 1005.4 |
| 20260505185027 | 83 | 277 | 4.0 | 22.0 | 0.00 | 0.00 | 0.00 | 34 | 1005.5 |
| 20260505184539 | 83 | 226 | 3.0 | 13.0 | 0.00 | 0.00 | 0.00 | 34 | 1005.4 |
| 20260505184025 | 83 | 213 | 3.0 | 13.0 | 0.00 | 0.00 | 0.00 | 34 | 1005.4 |
| 20260505183525 | 83 | 293 | 5.0 | 13.0 | 0.00 | 0.00 | 0.00 | 33 | 1005.5 |
| 20260505183037 | 83 | 210 | 4.0 | 12.0 | 0.00 | 0.00 | 0.00 | 33 | 1005.7 |
| 20260505182526 | 83 | 216 | 5.0 | 12.0 | 0.00 | 0.00 | 0.00 | 33 | 1005.9 |
| 20260505182025 | 83 | 57 | 4.0 | 10.0 | 0.00 | 0.00 | 0.00 | 33 | 1005.8 |
| 20260505181536 | 83 | 293 | 3.0 | 11.0 | 0.00 | 0.00 | 0.00 | 35 | 1006.0 |
| 20260505181024 | 83 | 158 | 3.0 | 13.0 | 0.00 | 0.00 | 0.00 | 36 | 1006.0 |
| 20260505180524 | 83 | 266 | 2.0 | 13.0 | 0.00 | 0.00 | 0.00 | 36 | 1006.1 |
| 20260505180045 | 83 | 248 | 3.0 | 11.0 | 0.00 | 0.00 | 0.00 | 36 | 1006.3 |
| 20260505175528 | 83 | 202 | 3.0 | 11.0 | 0.00 | 0.00 | 0.00 | 35 | 1006.1 |
| 20260505175024 | 83 | 178 | 3.0 | 9.0 | 0.00 | 0.00 | 0.00 | 37 | 1006.1 |
| 20260505174540 | 83 | 34 | 3.0 | 10.0 | 0.00 | 0.00 | 0.00 | 38 | 1006.2 |
| 20260505174025 | 83 | 288 | 3.0 | 10.0 | 0.00 | 0.00 | 0.00 | 37 | 1006.5 |
| 20260505173527 | 83 | 237 | 3.0 | 8.0 | 0.00 | 0.00 | 0.00 | 37 | 1006.4 |
| 20260505173039 | 83 | 115 | 2.0 | 10.0 | 0.00 | 0.00 | 0.00 | 39 | 1006.6 |
| 20260505172524 | 82 | 219 | 3.0 | 10.0 | 0.00 | 0.00 | 0.00 | 40 | 1006.6 |
| 20260505172024 | 82 | 141 | 3.0 | 11.0 | 0.00 | 0.00 | 0.00 | 40 | 1006.7 |
| 20260505171546 | 81 | 101 | 3.0 | 11.0 | 0.00 | 0.00 | 0.00 | 40 | 1006.8 |
| 20260505171025 | 81 | 283 | 3.0 | 11.0 | 0.00 | 0.00 | 0.00 | 41 | 1006.8 |
| 20260505170524 | 81 | 257 | 3.0 | 9.0 | 0.00 | 0.00 | 0.00 | 38 | 1006.9 |
| 20260505170039 | 81 | 231 | 3.0 | 8.0 | 0.00 | 0.00 | 0.00 | 40 | 1007.1 |
| 20260505165526 | 81 | 105 | 3.0 | 10.0 | 0.00 | 0.00 | 0.00 | 41 | 1007.1 |
| 20260505165026 | 81 | 152 | 4.0 | 10.0 | 0.00 | 0.00 | 0.00 | 39 | 1007.1 |
| 20260505164540 | 81 | 235 | 3.0 | 10.0 | 0.00 | 0.00 | 0.00 | 40 | 1007.2 |
| 20260505164027 | 80 | 185 | 2.0 | 13.0 | 0.00 | 0.00 | 0.00 | 41 | 1007.3 |
| 20260505163524 | 80 | 54 | 2.0 | 13.0 | 0.00 | 0.00 | 0.00 | 41 | 1007.4 |
| 20260505163042 | 80 | 198 | 3.0 | 13.0 | 0.00 | 0.00 | 0.00 | 39 | 1007.5 |
| 20260505162527 | 80 | 226 | 2.0 | 5.0 | 0.00 | 0.00 | 0.00 | 44 | 1007.6 |
| 20260505162030 | 80 | 164 | 1.0 | 6.0 | 0.00 | 0.00 | 0.00 | 42 | 1007.8 |
| 20260505161550 | 79 | 119 | 1.0 | 6.0 | 0.00 | 0.00 | 0.00 | 44 | 1007.9 |
| 20260505161027 | 79 | 309 | 2.0 | 7.0 | 0.00 | 0.00 | 0.00 | 45 | 1008.1 |
| 20260505160526 | 78 | 191 | 2.0 | 7.0 | 0.00 | 0.00 | 0.00 | 44 | 1008.2 |
| 20260505153043 | 76 | 151 | 1.0 | 5.0 | 0.00 | 0.00 | 0.00 | 48 | 1008.6 |
| 20260505152525 | 75 | 275 | 3.0 | 6.0 | 0.00 | 0.00 | 0.00 | 48 | 1008.7 |
| 20260505152033 | 75 | 160 | 2.0 | 6.0 | 0.00 | 0.00 | 0.00 | 48 | 1008.8 |
| 20260505151542 | 75 | 288 | 2.0 | 5.0 | 0.00 | 0.00 | 0.00 | 48 | 1008.9 |
| 20260505151024 | 75 | 259 | 1.0 | 5.0 | 0.00 | 0.00 | 0.00 | 52 | 1009.0 |
| 20260505150527 | 74 | 155 | 1.0 | 6.0 | 0.00 | 0.00 | 0.00 | 50 | 1008.9 |
| 20260505140523 | 69 | 145 | 2.0 | 6.0 | 0.00 | 0.00 | 0.00 | 58 | 1009.2 |
| 20260505125024 | 66 | 169 | 1.0 | 7.0 | 0.00 | 0.00 | 0.00 | 59 | 1009.2 |
| 20260505124543 | 65 | 0 | 1.0 | 7.0 | 0.00 | 0.00 | 0.00 | 61 | 1009.1 |
| 20260505124023 | 65 | 286 | 1.0 | 7.0 | 0.00 | 0.00 | 0.00 | 61 | 1009.3 |
| 20260505123524 | 64 | 152 | 1.0 | 6.0 | 0.00 | 0.00 | 0.00 | 63 | 1009.3 |
| 20260505123049 | 63 | 188 | 1.0 | 7.0 | 0.00 | 0.00 | 0.00 | 66 | 1009.1 |
| 20260505122524 | 62 | 146 | 2.0 | 7.0 | 0.00 | 0.00 | 0.00 | 64 | 1009.0 |
| 20260505122027 | 63 | 266 | 1.0 | 4.0 | 0.00 | 0.00 | 0.00 | 64 | 1009.1 |
| 20260505121537 | 62 | 212 | 1.0 | 4.0 | 0.00 | 0.00 | 0.00 | 68 | 1009.3 |
| 20260505121025 | 61 | 281 | 1.0 | 4.0 | 0.00 | 0.00 | 0.00 | 69 | 1009.3 |
| 20260505120527 | 60 | 217 | 1.0 | 4.0 | 0.00 | 0.00 | 0.00 | 68 | 1009.2 |
| 20260505120043 | 60 | 0 | 1.0 | 4.0 | 0.00 | 0.00 | 0.00 | 69 | 1009.2 |
| 20260505115524 | 59 | 217 | 1.0 | 4.0 | 0.00 | 0.00 | 0.00 | 70 | 1009.2 |
| 20260505115024 | 58 | 274 | 0.0 | 6.0 | 0.00 | 0.00 | 0.00 | 70 | 1009.2 |
| 20260505114534 | 59 | 294 | 1.0 | 6.0 | 0.00 | 0.00 | 0.00 | 70 | 1009.1 |
| 20260505114025 | 59 | 282 | 1.0 | 5.0 | 0.00 | 0.00 | 0.00 | 70 | 1009.1 |
| 20260505113524 | 59 | 150 | 1.0 | 6.0 | 0.00 | 0.00 | 0.00 | 69 | 1009.0 |
| 20260505113050 | 59 | 206 | 1.0 | 6.0 | 0.00 | 0.00 | 0.00 | 69 | 1009.0 |
| 20260505112527 | 59 | 272 | 0.0 | 4.0 | 0.00 | 0.00 | 0.00 | 70 | 1009.2 |
| 20260505112027 | 58 | 330 | 1.0 | 4.0 | 0.00 | 0.00 | 0.00 | 71 | 1009.2 |
| 20260505111540 | 57 | 216 | 1.0 | 5.0 | 0.00 | 0.00 | 0.00 | 72 | 1009.2 |
| 20260505111025 | 57 | 155 | 1.0 | 5.0 | 0.00 | 0.00 | 0.00 | 72 | 1009.0 |
| 20260505110525 | 56 | 163 | 1.0 | 4.0 | 0.00 | 0.00 | 0.00 | 73 | 1008.8 |
| 20260505102024 | 53 | 157 | 0.0 | 2.0 | 0.00 | 0.00 | 0.00 | 77 | 1009.0 |
| 20260505101536 | 53 | 0 | 0.0 | 2.0 | 0.00 | 0.00 | 0.00 | 77 | 1009.1 |
| 20260505101027 | 53 | 297 | 0.0 | 3.0 | 0.00 | 0.00 | 0.00 | 77 | 1009.1 |
| 20260505100529 | 53 | 234 | 1.0 | 3.0 | 0.00 | 0.00 | 0.00 | 77 | 1009.0 |
| 20260505100041 | 53 | 274 | 0.0 | 4.0 | 0.00 | 0.00 | 0.00 | 76 | 1009.0 |
| 20260505095527 | 53 | 301 | 0.0 | 4.0 | 0.00 | 0.00 | 0.00 | 76 | 1009.0 |
| 20260505095028 | 52 | 249 | 1.0 | 6.0 | 0.00 | 0.00 | 0.00 | 77 | 1009.0 |
| 20260505094539 | 52 | 0 | 0.0 | 6.0 | 0.00 | 0.00 | 0.00 | 76 | 1009.0 |
| 20260505094029 | 52 | 276 | 0.0 | 3.0 | 0.00 | 0.00 | 0.00 | 77 | 1009.0 |
| 20260505093529 | 52 | 120 | 0.0 | 5.0 | 0.00 | 0.00 | 0.00 | 77 | 1009.1 |
| 20260505093040 | 52 | 290 | 0.0 | 5.0 | 0.00 | 0.00 | 0.00 | 76 | 1009.1 |
| 20260505092529 | 52 | 277 | 0.0 | 5.0 | 0.00 | 0.00 | 0.00 | 76 | 1009.0 |
| 20260505092029 | 52 | 0 | 0.0 | 3.0 | 0.00 | 0.00 | 0.00 | 77 | 1009.0 |
| 20260505091538 | 52 | 240 | 0.0 | 3.0 | 0.00 | 0.00 | 0.00 | 77 | 1009.1 |
| 20260505091027 | 51 | 280 | 0.0 | 2.0 | 0.00 | 0.00 | 0.00 | 77 | 1008.9 |
| 20260505090527 | 51 | 0 | 0.0 | 1.0 | 0.00 | 0.00 | 0.00 | 77 | 1008.9 |
| 20260505090050 | 51 | 0 | 0.0 | 1.0 | 0.00 | 0.00 | 0.00 | 77 | 1009.0 |
| 20260505085526 | 51 | 0 | 0.0 | 1.0 | 0.00 | 0.00 | 0.00 | 77 | 1009.1 |
| 20260505085027 | 51 | 257 | 0.0 | 1.0 | 0.00 | 0.00 | 0.00 | 77 | 1009.2 |
| 20260505084556 | 51 | 0 | 0.0 | 1.0 | 0.00 | 0.00 | 0.00 | 77 | 1009.2 |
| 20260505084025 | 51 | 0 | 0.0 | 2.0 | 0.00 | 0.00 | 0.00 | 77 | 1009.1 |
| 20260505083530 | 51 | 281 | 0.0 | 4.0 | 0.00 | 0.00 | 0.00 | 77 | 1009.2 |
| 20260505083057 | 51 | 0 | 0.0 | 4.0 | 0.00 | 0.00 | 0.00 | 77 | 1009.3 |
| 20260505082528 | 51 | 0 | 0.0 | 1.0 | 0.00 | 0.00 | 0.00 | 77 | 1009.3 |
| 20260505082028 | 51 | 0 | 0.0 | 4.0 | 0.00 | 0.00 | 0.00 | 76 | 1009.3 |
| 20260505081553 | 51 | 280 | 0.0 | 4.0 | 0.00 | 0.00 | 0.00 | 77 | 1009.3 |
| 20260505081030 | 51 | 0 | 0.0 | 3.0 | 0.00 | 0.00 | 0.00 | 77 | 1009.3 |
| 20260505080528 | 50 | 0 | 0.0 | 2.0 | 0.00 | 0.00 | 0.00 | 77 | 1009.2 |
| 20260505080047 | 50 | 0 | 0.0 | 1.0 | 0.00 | 0.00 | 0.00 | 77 | 1009.2 |
| 20260505075529 | 51 | 0 | 0.0 | 1.0 | 0.00 | 0.00 | 0.00 | 76 | 1009.3 |
| 20260505075026 | 51 | 0 | 0.0 | 1.0 | 0.00 | 0.00 | 0.00 | 76 | 1009.3 |
| 20260505074541 | 51 | 0 | 0.0 | 1.0 | 0.00 | 0.00 | 0.00 | 75 | 1009.3 |
| 20260505074027 | 51 | 0 | 0.0 | 1.0 | 0.00 | 0.00 | 0.00 | 75 | 1009.4 |
| 20260505073526 | 51 | 0 | 0.0 | 1.0 | 0.00 | 0.00 | 0.00 | 75 | 1009.4 |
| 20260505073052 | 52 | 0 | 0.0 | 3.0 | 0.00 | 0.00 | 0.00 | 74 | 1009.4 |
| 20260505072526 | 52 | 0 | 0.0 | 3.0 | 0.00 | 0.00 | 0.00 | 74 | 1009.4 |
| 20260505072029 | 52 | 281 | 0.0 | 4.0 | 0.00 | 0.00 | 0.00 | 74 | 1009.4 |
| 20260505071546 | 52 | 0 | 0.0 | 4.0 | 0.00 | 0.00 | 0.00 | 74 | 1009.4 |
| 20260505071029 | 52 | 259 | 0.0 | 4.0 | 0.00 | 0.00 | 0.00 | 74 | 1009.5 |
| 20260505070533 | 52 | 0 | 0.0 | 1.0 | 0.00 | 0.00 | 0.00 | 74 | 1009.5 |
| 20260505070044 | 51 | 0 | 0.0 | 1.0 | 0.00 | 0.00 | 0.00 | 74 | 1009.6 |
| 20260505065527 | 51 | 0 | 0.0 | 1.0 | 0.00 | 0.00 | 0.00 | 74 | 1009.5 |
| 20260505065026 | 52 | 0 | 0.0 | 1.0 | 0.00 | 0.00 | 0.00 | 74 | 1009.5 |
| 20260505064538 | 51 | 0 | 0.0 | 1.0 | 0.00 | 0.00 | 0.00 | 74 | 1009.5 |
| 20260505064028 | 51 | 0 | 0.0 | 1.0 | 0.00 | 0.00 | 0.00 | 74 | 1009.5 |
| 20260505063526 | 52 | 0 | 0.0 | 1.0 | 0.00 | 0.00 | 0.00 | 73 | 1009.6 |
| 20260505063040 | 52 | 0 | 0.0 | 4.0 | 0.00 | 0.00 | 0.00 | 73 | 1009.6 |
| 20260505062526 | 52 | 0 | 0.0 | 4.0 | 0.00 | 0.00 | 0.00 | 72 | 1009.6 |
| 20260505062026 | 52 | 0 | 0.0 | 4.0 | 0.00 | 0.00 | 0.00 | 72 | 1009.5 |
| 20260505061535 | 52 | 0 | 0.0 | 4.0 | 0.00 | 0.00 | 0.00 | 72 | 1009.6 |
| 20260505061026 | 52 | 0 | 0.0 | 4.0 | 0.00 | 0.00 | 0.00 | 73 | 1009.5 |
| 20260505060526 | 52 | 257 | 0.0 | 1.0 | 0.00 | 0.00 | 0.00 | 72 | 1009.7 |
| 20260505060056 | 52 | 0 | 0.0 | 0.0 | 0.00 | 0.00 | 0.00 | 72 | 1009.7 |
| 20260505055527 | 52 | 0 | 0.0 | 0.0 | 0.00 | 0.00 | 0.00 | 71 | 1009.6 |
| 20260505055026 | 53 | 0 | 0.0 | 1.0 | 0.00 | 0.00 | 0.00 | 70 | 1009.6 |
| 20260505054540 | 53 | 0 | 0.0 | 1.0 | 0.00 | 0.00 | 0.00 | 70 | 1009.7 |
| 20260505054027 | 53 | 0 | 0.0 | 3.0 | 0.00 | 0.00 | 0.00 | 69 | 1009.7 |
| 20260505053525 | 53 | 0 | 0.0 | 3.0 | 0.00 | 0.00 | 0.00 | 69 | 1009.7 |
| 20260505053038 | 53 | 0 | 0.0 | 2.0 | 0.00 | 0.00 | 0.00 | 69 | 1009.8 |
| 20260505052526 | 53 | 0 | 0.0 | 2.0 | 0.00 | 0.00 | 0.00 | 69 | 1009.7 |
| 20260505052026 | 53 | 0 | 0.0 | 2.0 | 0.00 | 0.00 | 0.00 | 68 | 1009.8 |
| 20260505051539 | 54 | 0 | 0.0 | 4.0 | 0.00 | 0.00 | 0.00 | 68 | 1009.7 |
| 20260505051027 | 54 | 0 | 0.0 | 4.0 | 0.00 | 0.00 | 0.00 | 68 | 1009.7 |
| 20260505050526 | 53 | 0 | 0.0 | 3.0 | 0.00 | 0.00 | 0.00 | 68 | 1009.6 |
| 20260505041549 | 55 | 0 | 0.0 | 3.0 | 0.00 | 0.00 | 0.00 | 64 | 1009.7 |
| 20260505041027 | 55 | 0 | 0.0 | 4.0 | 0.00 | 0.00 | 0.00 | 64 | 1009.7 |
| 20260505040530 | 55 | 280 | 0.0 | 4.0 | 0.00 | 0.00 | 0.00 | 63 | 1009.6 |
| 20260505040041 | 55 | 0 | 1.0 | 4.0 | 0.00 | 0.00 | 0.00 | 62 | 1009.6 |
| 20260505035529 | 55 | 0 | 0.0 | 4.0 | 0.00 | 0.00 | 0.00 | 62 | 1009.6 |
| 20260505035026 | 55 | 0 | 0.0 | 4.0 | 0.00 | 0.00 | 0.00 | 62 | 1009.6 |
| 20260505034537 | 55 | 0 | 0.0 | 5.0 | 0.00 | 0.00 | 0.00 | 62 | 1009.5 |
| 20260505034027 | 56 | 0 | 0.0 | 5.0 | 0.00 | 0.00 | 0.00 | 61 | 1009.5 |
| 20260505033527 | 56 | 194 | 1.0 | 5.0 | 0.00 | 0.00 | 0.00 | 61 | 1009.5 |
| 20260505033040 | 56 | 262 | 0.0 | 5.0 | 0.00 | 0.00 | 0.00 | 61 | 1009.5 |
| 20260505032526 | 56 | 124 | 0.0 | 1.0 | 0.00 | 0.00 | 0.00 | 61 | 1009.5 |
| 20260505032027 | 56 | 294 | 0.0 | 2.0 | 0.00 | 0.00 | 0.00 | 60 | 1009.6 |
| 20260505031539 | 56 | 0 | 0.0 | 2.0 | 0.00 | 0.00 | 0.00 | 60 | 1009.5 |
| 20260505031027 | 56 | 0 | 0.0 | 2.0 | 0.00 | 0.00 | 0.00 | 60 | 1009.5 |
| 20260505030524 | 56 | 0 | 0.0 | 3.0 | 0.00 | 0.00 | 0.00 | 59 | 1009.4 |
| 20260505030048 | 57 | 276 | 0.0 | 3.0 | 0.00 | 0.00 | 0.00 | 59 | 1009.4 |
| 20260505025527 | 57 | 0 | 0.0 | 3.0 | 0.00 | 0.00 | 0.00 | 58 | 1009.4 |
| 20260505025027 | 57 | 0 | 0.0 | 3.0 | 0.00 | 0.00 | 0.00 | 57 | 1009.4 |
| 20260505024542 | 57 | 0 | 0.0 | 3.0 | 0.00 | 0.00 | 0.00 | 57 | 1009.3 |
| 20260505024023 | 57 | 116 | 0.0 | 3.0 | 0.00 | 0.00 | 0.00 | 57 | 1009.5 |
| 20260505023525 | 57 | 0 | 1.0 | 3.0 | 0.00 | 0.00 | 0.00 | 57 | 1009.5 |
| 20260505023034 | 58 | 150 | 0.0 | 3.0 | 0.00 | 0.00 | 0.00 | 56 | 1009.4 |
| 20260505022524 | 58 | 0 | 0.0 | 3.0 | 0.00 | 0.00 | 0.00 | 55 | 1009.5 |
| 20260505022025 | 58 | 281 | 0.0 | 6.0 | 0.00 | 0.00 | 0.00 | 55 | 1009.6 |
| 20260505021540 | 58 | 0 | 1.0 | 6.0 | 0.00 | 0.00 | 0.00 | 54 | 1009.6 |
| 20260505021025 | 58 | 0 | 1.0 | 5.0 | 0.00 | 0.00 | 0.00 | 54 | 1009.5 |
| 20260505020525 | 58 | 0 | 0.0 | 3.0 | 0.00 | 0.00 | 0.00 | 54 | 1009.5 |
| 20260505020041 | 59 | 0 | 0.0 | 6.0 | 0.00 | 0.00 | 0.00 | 53 | 1009.6 |
| 20260505015524 | 59 | 276 | 1.0 | 6.0 | 0.00 | 0.00 | 0.00 | 53 | 1009.5 |
| 20260505015024 | 59 | 271 | 1.0 | 5.0 | 0.00 | 0.00 | 0.00 | 52 | 1009.4 |
| 20260505014559 | 59 | 207 | 1.0 | 4.0 | 0.00 | 0.00 | 0.00 | 52 | 1009.4 |
| 20260505014026 | 60 | 288 | 0.0 | 3.0 | 0.00 | 0.00 | 0.00 | 51 | 1009.3 |
| 20260505013526 | 60 | 279 | 0.0 | 7.0 | 0.00 | 0.00 | 0.00 | 51 | 1009.3 |
| 20260505013046 | 60 | 292 | 1.0 | 7.0 | 0.00 | 0.00 | 0.00 | 50 | 1009.2 |
| 20260505012527 | 60 | 195 | 1.0 | 7.0 | 0.00 | 0.00 | 0.00 | 50 | 1009.1 |
| 20260505012023 | 61 | 284 | 0.0 | 7.0 | 0.00 | 0.00 | 0.00 | 50 | 1009.0 |
| 20260505011545 | 61 | 141 | 1.0 | 7.0 | 0.00 | 0.00 | 0.00 | 49 | 1008.9 |
| 20260505011027 | 61 | 261 | 1.0 | 7.0 | 0.00 | 0.00 | 0.00 | 50 | 1008.8 |
| 20260505010525 | 61 | 314 | 1.0 | 7.0 | 0.00 | 0.00 | 0.00 | 49 | 1008.8 |
| 20260505010051 | 61 | 251 | 0.0 | 8.0 | 0.00 | 0.00 | 0.00 | 49 | 1008.7 |
| 20260505005529 | 61 | 139 | 1.0 | 8.0 | 0.00 | 0.00 | 0.00 | 49 | 1008.6 |
| 20260505005026 | 62 | 271 | 1.0 | 7.0 | 0.00 | 0.00 | 0.00 | 48 | 1008.4 |
| 20260505004547 | 62 | 279 | 1.0 | 7.0 | 0.00 | 0.00 | 0.00 | 48 | 1008.2 |
| 20260505004026 | 62 | 154 | 0.0 | 7.0 | 0.00 | 0.00 | 0.00 | 48 | 1008.0 |
| 20260505003523 | 62 | 250 | 1.0 | 10.0 | 0.00 | 0.00 | 0.00 | 46 | 1007.9 |
| 20260505003053 | 63 | 169 | 1.0 | 10.0 | 0.00 | 0.00 | 0.00 | 47 | 1007.7 |
| 20260505002523 | 63 | 89 | 1.0 | 7.0 | 0.00 | 0.00 | 0.00 | 46 | 1007.6 |
| 20260505002023 | 63 | 79 | 1.0 | 7.0 | 0.00 | 0.00 | 0.00 | 45 | 1007.5 |
| 20260505001537 | 63 | 297 | 2.0 | 7.0 | 0.00 | 0.00 | 0.00 | 45 | 1007.4 |
| 20260505001027 | 63 | 288 | 2.0 | 9.0 | 0.00 | 0.00 | 0.00 | 45 | 1007.4 |
| 20260505000523 | 64 | 141 | 1.0 | 9.0 | 0.00 | 0.00 | 0.00 | 44 | 1007.2 |
| 20260505000046 | 64 | 281 | 2.0 | 9.0 | 0.00 | 0.00 | 0.00 | 44 | 1007.2 |
| 20260504235523 | 64 | 108 | 1.0 | 8.0 | 0.00 | 0.00 | 0.00 | 44 | 1007.1 |
| 20260504235027 | 65 | 250 | 1.0 | 8.0 | 0.00 | 0.00 | 0.00 | 43 | 1007.0 |
| 20260504234543 | 65 | 162 | 1.0 | 6.0 | 0.00 | 0.00 | 0.00 | 42 | 1006.9 |
| 20260504234026 | 65 | 273 | 2.0 | 5.0 | 0.00 | 0.00 | 0.00 | 41 | 1006.7 |
| 20260504233524 | 66 | 212 | 2.0 | 8.0 | 0.00 | 0.00 | 0.00 | 41 | 1006.6 |
| 20260504233038 | 66 | 269 | 1.0 | 8.0 | 0.00 | 0.00 | 0.00 | 39 | 1006.6 |
| 20260504232527 | 67 | 269 | 2.0 | 8.0 | 0.00 | 0.00 | 0.00 | 38 | 1006.5 |
| 20260504232025 | 67 | 0 | 2.0 | 6.0 | 0.00 | 0.00 | 0.00 | 37 | 1006.4 |
| 20260504231537 | 67 | 197 | 1.0 | 4.0 | 0.00 | 0.00 | 0.00 | 35 | 1006.2 |
| 20260504231025 | 68 | 99 | 0.0 | 4.0 | 0.00 | 0.00 | 0.00 | 35 | 1006.2 |
| 20260504230524 | 68 | 210 | 1.0 | 6.0 | 0.00 | 0.00 | 0.00 | 35 | 1006.1 |
| 20260504230038 | 68 | 267 | 1.0 | 6.0 | 0.00 | 0.00 | 0.00 | 35 | 1006.1 |
| 20260504225523 | 68 | 259 | 1.0 | 4.0 | 0.00 | 0.00 | 0.00 | 34 | 1006.0 |
| 20260504225024 | 69 | 0 | 0.0 | 5.0 | 0.00 | 0.00 | 0.00 | 34 | 1005.9 |
| 20260504224538 | 69 | 79 | 1.0 | 5.0 | 0.00 | 0.00 | 0.00 | 33 | 1005.9 |
| 20260504224027 | 69 | 259 | 1.0 | 5.0 | 0.00 | 0.00 | 0.00 | 33 | 1005.8 |